SL-8 DEB, 21861

Orbit data source: Space-Track

SL-8 DEB, 21861 is space debris in LEO originally from a launch on Tue, 12 Feb 1991 UTC launched from the Plesetsk Missile And Space Complex (PKMTR). Debris objects in space refer to the collection of defunct objects orbiting the Earth. Examples of debris include non-operational satellites, rocket bodies, and fragments generated from explosions, collisions, or faulty payload assembly.

Loading next visibility...
Identifier
21861, 1991-009CA
Orbit
LEO
Country
Flag of CISCIS
Related business
Manufacturer
Unknown
Mission
Spacecraft
Bus & Motor
Unknown
Mass
Unknown
Launch date (UTC)
1991-02-12 (35 years ago)
Launch vehicle
Unknown
Launch site
Plesetsk Missile And Space Complex (PKMTR)
Object type
Payload
Rocket body
Debris
Shape & HBR
Unknown shape, 0.1 m
Radar Cross Section
Medium (>0.1 m² and <1 m²)

Expand to show TLE details & history
Last TLE update: 3 days ago

TLE from 3 days ago
0 SL-8 DEB
1 21861U 91009CA  26170.64034787  .00000196  00000-0  18460-2 0  9999
2 21861  74.0218  36.1441 0138747 142.8299 248.6945 12.25168477577062
Epoch: 2026-06-19T15:22Z
TLE epoch observation values (Epoch: 2026-06-19T15:22:06.055Z)
Latitude
28.82676°
Longitude
-93.22475°
Altitude
1,614.566 km
Speed
7.047 km/s
True Right ascension
03h 00m 40s
True Declination
28° 41' 50"
Sunlit
Object was in daylight at epoch
Visualization orbit readout
Latitude
Unknown
Longitude
Unknown
Altitude
Unknown
Speed
Unknown
Apparent Right ascension
Unknown
Apparent Declination
Unknown
Sunlit
N/A
Visualization observer readout
Local Sidereal Time
05:18:45
Azimuth
Unknown
Elevation
Unknown
Doppler factor
Unknown
Orbital elements
Apogee altitude
1,678.223 km
Perigee altitude
1,457.723 km
Semi-major axis
7,946.11 km
Eccentricity
0.01387
Inclination
74.0218°
RAAN
36.1441°
Arg. of periapsis
142.8299°
True anomaly
247.22268°
Mean anomaly
248.6945°
Eccentric anomaly
247.95764°
Mean motion
3.06416 °/min
Orbital period
117.49 mins
BSTAR
0.001846
Loading maneuver chart data...
Computing Atmospheric mass density...
Loading historical data...
Loading historical data...
Loading historical data...
Loading historical data...
Loading historical data...
Loading historical data...
Loading historical data...

Documentation

Showing up to 5 results
|